Lubbock, TX

8:21 PM CST on December 06, 2019 (GMT -0600)
Lubbock International

Weather History for KLBB - May, 2019

Change the Weather History Date:

Wednesday, May 1, 2019

  Actual Average Record
Temperature  
Mean Temperature 71 °F 65 °F  
Max Temperature 88 °F 80 °F 96 °F (1992)
Min Temperature 53 °F 51 °F 32 °F (1970)
Degree Days  
Heating Degree Days 0 3  
Month to date heating degree days 0 3  
Since 1 July heating degree days 3397 3340  
Cooling Degree Days 6 3  
Month to date cooling degree days 6 3  
Year to date cooling degree days 69 59  
Growing Degree Days 20 (Base 50)    
Moisture  
Dew Point 41 °F    
Average Humidity 56    
Maximum Humidity 100    
Minimum Humidity 12    
Precipitation  
Precipitation 0.00 in 0.05 in 0.66 in (1914)
Month to date precipitation 0.00 0.05  
Year to date precipitation 2.92 3.96  
Snow  
Snow 0.00 in 0.00 in 0.00 in (2002)
Month to date snowfall 0.0 0.0  
Since 1 July snowfall 10.1 8.2  
Snow Depth 0.00 in    
Sea Level Pressure  
Sea Level Pressure 29.77 in    
Wind  
Wind Speed 10 mph (SW)    
Max Wind Speed 24 mph    
Max Gust Speed 30 mph    
Visibility 8 miles    
Events Fog    
T = Trace of Precipitation, MM = Missing Value Source: NWS Daily Summary

Daily Weather History Graph

Daily Weather History Graph

Search for Another Location

Airport or City:

Astronomy

May. 01, 2019 Rise Set
Actual Time 6:58 AM CDT 8:30 PM CDT
Civil Twilight 6:32 AM CDT 8:56 PM CDT
Nautical Twilight 6:00 AM CDT 9:28 PM CDT
Astronomical Twilight 5:27 AM CDT 10:02 PM CDT
Moon 5:30 AM CDT (5/1) 5:33 PM CDT (5/1)
Length of Visible Light 14h 24m
Length of Day
13h 31m
Waning Crescent, 10% of the Moon is Illuminated
May 1
Waning Crescent
May 4
New
May 11
First Quarter
May 18
Full
May 26
Last Quarter

Hourly Weather History & Observations

Time (CDT) Temp. Dew Point Humidity Pressure Visibility Wind Dir Wind Speed Gust Speed Precip Events Conditions
12:16 AM 61.0 °F 60.1 °F 97% 29.85 in 0.1 mi SE 10.4 mph - N/A   Overcast
12:40 AM 63.0 °F 60.1 °F 90% 29.85 in 0.1 mi SE 10.4 mph - N/A Fog Fog
12:44 AM 61.0 °F 60.1 °F 97% 29.85 in 0.1 mi SE 11.5 mph - N/A Fog Fog
12:53 AM 60.1 °F 60.1 °F 100% 29.75 in 0.1 mi SE 8.1 mph - N/A Fog Fog
1:50 AM 57.2 °F 57.2 °F 100% 29.85 in 1.0 mi South 8.1 mph - N/A   Mist
1:53 AM 57.9 °F 57.0 °F 97% 29.76 in 8.0 mi South 9.2 mph - N/A   Partly Cloudy
2:53 AM 59.0 °F 48.0 °F 67% 29.75 in 10.0 mi SW 5.8 mph - N/A   Clear
3:53 AM 54.0 °F 41.0 °F 62% 29.75 in 10.0 mi SSW 11.5 mph - N/A   Clear
4:53 AM 55.9 °F 37.0 °F 49% 29.75 in 10.0 mi WSW 9.2 mph - N/A   Clear
5:53 AM 54.0 °F 36.0 °F 51% 29.76 in 10.0 mi SW 9.2 mph - N/A   Clear
6:53 AM 53.1 °F 41.0 °F 64% 29.77 in 10.0 mi SW 8.1 mph - N/A   Clear
7:53 AM 55.0 °F 45.0 °F 69% 29.79 in 10.0 mi WSW 6.9 mph - N/A   Partly Cloudy
8:53 AM 62.1 °F 50.0 °F 65% 29.81 in 10.0 mi WSW 11.5 mph - N/A   Clear
9:53 AM 70.0 °F 43.0 °F 38% 29.81 in 10.0 mi West 8.1 mph - N/A   Clear
10:53 AM 75.9 °F 35.1 °F 23% 29.81 in 10.0 mi West 13.8 mph - N/A   Clear
11:53 AM 78.1 °F 36.0 °F 22% 29.82 in 10.0 mi West 11.5 mph - N/A   Clear
12:53 PM 80.1 °F 35.1 °F 20% 29.81 in 10.0 mi West 6.9 mph - N/A   Clear
2:53 PM 84.0 °F 30.0 °F 14% 29.76 in 10.0 mi SSW 12.7 mph - N/A   Scattered Clouds
3:36 PM 87.1 °F 28.9 °F 12% 29.87 in 10.0 mi SW 15.0 mph 25.3 mph N/A   Mostly Cloudy
3:53 PM 86.0 °F 28.9 °F 13% 29.73 in 10.0 mi SW 10.4 mph 20.7 mph N/A   Mostly Cloudy
4:53 PM 87.1 °F 28.9 °F 12% 29.70 in 10.0 mi SW 10.4 mph 21.9 mph N/A   Scattered Clouds
5:53 PM 87.1 °F 30.0 °F 13% 29.68 in 10.0 mi SW 15.0 mph - N/A   Scattered Clouds
6:53 PM 84.9 °F 32.0 °F 15% 29.70 in 10.0 mi SW 17.3 mph 28.8 mph N/A   Partly Cloudy
7:53 PM 82.9 °F 26.1 °F 13% 29.69 in 10.0 mi SSW 15.0 mph 25.3 mph N/A   Partly Cloudy
8:53 PM 75.0 °F 30.9 °F 20% 29.71 in 10.0 mi South 10.4 mph - N/A   Partly Cloudy
9:53 PM 70.0 °F 33.1 °F 26% 29.71 in 10.0 mi SSW 8.1 mph - N/A   Clear
10:53 PM 68.0 °F 34.0 °F 28% 29.72 in 10.0 mi SW 6.9 mph - N/A   Partly Cloudy